GW3170 Weather Reports


time (UTC)temp
C
wind
direction
speed
KPH
gust
KPH
rain 1hr
cm
rain 24hr
cm
rain mn
cm
humidity
%
barometer
mb
20260505070557 16 208 1.6 9.7 0.00 0.00 0.00 70 1003.3
20260505070100 16 165 3.2 8.0 0.00 0.00 0.00 70 1003.3
20260505065557 16 115 1.6 9.7 0.00 0.00 0.00 70 1003.2
20260505065057 16 210 1.6 9.7 0.00 0.00 0.00 70 1003.2
20260505064558 16 0 0.0 6.4 0.00 0.00 0.00 69 1003.1
20260505064057 16 0 0.0 11.3 0.00 0.00 0.00 68 1003.1
20260505063555 16 219 4.8 11.3 0.00 0.00 0.00 68 1003.0
20260505063101 16 122 3.2 11.3 0.00 0.00 0.00 67 1002.9
20260505062555 16 229 1.6 16.1 0.00 0.00 0.00 66 1002.9
20260505062055 16 135 4.8 16.1 0.00 0.00 0.00 65 1002.9
20260505061601 16 239 6.4 16.1 0.00 0.00 0.00 64 1003.0
20260505061054 16 120 4.8 16.1 0.00 0.00 0.00 63 1002.9
20260505060557 16 218 6.4 16.1 0.00 0.00 0.00 62 1003.0
20260505055554 16 0 3.2 8.0 0.00 0.00 0.00 59 1003.1
20260505055100 16 134 0.0 12.9 0.00 0.00 0.00 59 1003.1
20260505054559 16 153 1.6 12.9 0.00 0.00 0.00 59 1003.2
20260505054058 16 205 1.6 9.7 0.00 0.00 0.00 59 1003.0
20260505053554 16 229 0.0 6.4 0.00 0.00 0.00 58 1003.1
20260505053058 16 0 0.0 3.2 0.00 0.00 0.00 58 1003.1
20260505052559 16 0 0.0 3.2 0.00 0.00 0.00 58 1003.3
20260505052058 16 0 0.0 4.8 0.00 0.00 0.00 57 1003.3
20260505051556 16 124 0.0 8.0 0.00 0.00 0.00 57 1003.3
20260505051052 16 139 1.6 8.0 0.00 0.00 0.00 57 1003.3
20260505050554 16 233 0.0 6.4 0.00 0.00 0.00 58 1003.3
20260505050126 16 96 0.0 12.9 0.00 0.00 0.00 59 1003.3
20260505041605 14 124 0.0 1.6 0.00 0.00 0.00 61 1003.3
20260505041054 13 118 0.0 1.6 0.00 0.00 0.00 63 1003.2
20260505040557 13 0 0.0 1.6 0.00 0.00 0.00 66 1003.1
20260505035602 12 0 0.0 0.0 0.00 0.00 0.00 71 1003.1
20260505035055 11 0 0.0 0.0 0.00 0.00 0.00 73 1003.1
20260505034553 11 0 0.0 0.0 0.00 0.00 0.00 77 1003.2
20260505034056 10 0 0.0 0.0 0.00 0.00 0.00 79 1003.1
20260505033552 10 0 0.0 0.0 0.00 0.00 0.00 79 1003.2
20260505033054 10 0 0.0 0.0 0.00 0.00 0.00 79 1003.1
20260505032555 10 0 0.0 0.0 0.00 0.00 0.00 78 1003.1
20260505032057 10 0 0.0 0.0 0.00 0.00 0.00 78 1003.1
20260505031559 10 0 0.0 0.0 0.00 0.00 0.00 77 1003.3
20260505031054 11 0 0.0 0.0 0.00 0.00 0.00 77 1003.2
20260505030555 11 0 0.0 0.0 0.00 0.00 0.00 77 1003.2
20260505030055 11 0 0.0 0.0 0.00 0.00 0.00 77 1003.2
20260505025554 11 0 0.0 0.0 0.00 0.00 0.00 76 1003.2
20260505025053 11 0 0.0 0.0 0.00 0.00 0.00 75 1003.2
20260505024557 11 0 0.0 0.0 0.00 0.00 0.00 75 1003.3
20260505024053 11 0 0.0 0.0 0.00 0.00 0.00 75 1003.3
20260505023555 11 0 0.0 0.0 0.00 0.00 0.00 75 1003.3
20260505023057 12 0 0.0 0.0 0.00 0.00 0.00 74 1003.4
20260505022555 12 0 0.0 0.0 0.00 0.00 0.00 74 1003.3
20260505022055 12 0 0.0 0.0 0.00 0.00 0.00 74 1003.5
20260505021554 12 0 0.0 0.0 0.00 0.00 0.00 74 1003.4
20260505021054 12 0 0.0 0.0 0.00 0.00 0.00 73 1003.5
20260505020554 12 0 0.0 0.0 0.00 0.00 0.00 73 1003.4
20260505020055 12 0 0.0 0.0 0.00 0.00 0.00 73 1003.4
20260505015554 12 0 0.0 0.0 0.00 0.03 0.00 72 1003.4
20260505015055 12 0 0.0 0.0 0.00 0.03 0.00 72 1003.3
20260505014611 12 0 0.0 0.0 0.00 0.03 0.00 73 1003.3
20260505014054 12 0 0.0 0.0 0.00 0.03 0.00 72 1003.3
20260505013554 12 0 0.0 0.0 0.00 0.03 0.00 71 1003.2
20260505013055 13 0 0.0 0.0 0.00 0.03 0.00 70 1003.1
20260505012554 13 0 0.0 0.0 0.00 0.03 0.00 69 1003.1
20260505012054 13 0 0.0 0.0 0.00 0.03 0.00 69 1003.3
20260505011604 13 0 0.0 0.0 0.00 0.03 0.00 69 1003.4
20260505011054 13 0 0.0 0.0 0.00 0.03 0.00 68 1003.3
20260505010554 13 0 0.0 0.0 0.00 0.03 0.00 66 1003.2
20260505010058 14 0 0.0 0.0 0.00 0.03 0.00 66 1003.2
20260505005555 14 0 0.0 0.0 0.00 0.03 0.00 64 1003.2
20260505005055 15 0 0.0 0.0 0.00 0.03 0.00 64 1003.2
20260505004557 15 0 0.0 0.0 0.00 0.03 0.00 61 1003.1
20260505004054 15 0 0.0 0.0 0.00 0.03 0.00 60 1003.0
20260505003559 16 0 0.0 0.0 0.00 0.03 0.00 59 1003.0
20260505003056 16 0 0.0 0.0 0.00 0.03 0.00 58 1003.0
20260505002556 17 0 0.0 0.0 0.00 0.03 0.00 56 1003.1
20260505002054 17 0 0.0 0.0 0.00 0.03 0.00 54 1003.1
20260505001623 17 0 0.0 0.0 0.00 0.03 0.00 55 1003.1
20260505001059 18 0 0.0 0.0 0.00 0.03 0.00 54 1003.1
20260505000554 18 0 0.0 0.0 0.00 0.03 0.00 50 1003.0
20260505000135 20 0 0.0 0.0 0.00 0.03 0.00 49 1003.1
20260504235557 20 0 0.0 0.0 0.00 0.03 0.00 44 1003.1
20260504235054 21 0 0.0 0.0 0.00 0.03 0.00 44 1003.1
20260504234611 22 0 0.0 0.0 0.00 0.03 0.00 42 1003.1
20260504234053 23 0 0.0 0.0 0.00 0.03 0.00 39 1003.0
20260504233559 23 0 0.0 0.0 0.00 0.03 0.00 40 1002.9
20260504233105 23 0 0.0 0.0 0.00 0.03 0.00 37 1002.9
20260504232555 23 0 0.0 0.0 0.00 0.03 0.00 35 1003.0
20260504232054 23 0 0.0 3.2 0.00 0.03 0.00 36 1002.9
20260504231631 23 0 0.0 3.2 0.00 0.03 0.00 35 1002.9
20260504231057 23 231 1.6 6.4 0.00 0.03 0.00 34 1002.8
20260504230557 23 0 0.0 6.4 0.00 0.03 0.00 35 1002.8
20260504230057 23 217 3.2 6.4 0.00 0.03 0.00 34 1002.8
20260504225558 24 216 1.6 3.2 0.00 0.03 0.00 32 1002.8
20260504225058 24 0 0.0 3.2 0.00 0.03 0.00 34 1002.9
20260504224610 24 0 0.0 3.2 0.00 0.03 0.00 35 1002.9
20260504224057 23 226 0.0 6.4 0.00 0.03 0.00 32 1003.0
20260504223557 23 0 0.0 6.4 0.00 0.03 0.00 34 1003.1
20260504223055 23 258 1.6 11.3 0.00 0.03 0.00 33 1003.1
20260504222557 23 204 1.6 11.3 0.00 0.03 0.00 34 1003.1
20260504222054 23 0 3.2 11.3 0.00 0.03 0.00 32 1003.1
20260504221557 23 133 4.8 12.9 0.00 0.03 0.00 34 1003.1
20260504221057 23 209 6.4 12.9 0.00 0.03 0.00 34 1003.1
20260504220600 23 237 3.2 9.7 0.00 0.03 0.00 33 1003.1
20260504220100 23 222 3.2 9.7 0.00 0.03 0.00 35 1003.2
20260504215555 23 247 4.8 16.1 0.00 0.03 0.00 37 1003.3
20260504215100 23 264 4.8 16.1 0.00 0.03 0.00 36 1003.4
20260504214554 23 265 8.0 16.1 0.00 0.03 0.00 35 1003.6
20260504214057 23 262 8.0 17.7 0.00 0.03 0.00 37 1003.6
20260504213557 23 285 9.7 17.7 0.00 0.03 0.00 36 1003.4
20260504213126 23 264 8.0 16.1 0.00 0.03 0.00 37 1003.5
20260504212558 23 250 6.4 16.1 0.00 0.03 0.00 35 1003.5
20260504212057 23 271 8.0 19.3 0.00 0.03 0.00 36 1003.5
20260504211603 23 251 11.3 19.3 0.00 0.03 0.00 35 1003.5
20260504211058 23 284 11.3 17.7 0.00 0.03 0.00 36 1003.5
20260504210557 23 246 9.7 19.3 0.00 0.03 0.00 38 1003.6
20260504210055 23 218 8.0 19.3 0.00 0.03 0.00 37 1003.4
20260504205559 23 228 9.7 19.3 0.00 0.03 0.00 34 1003.5
20260504205057 23 305 9.7 20.9 0.00 0.03 0.00 37 1003.4
20260504204556 23 257 9.7 22.5 0.00 0.03 0.00 38 1003.6
20260504204057 23 262 12.9 22.5 0.00 0.03 0.00 39 1003.7
20260504203559 22 175 11.3 20.9 0.00 0.03 0.00 39 1003.6
20260504203117 22 240 9.7 19.3 0.00 0.03 0.00 38 1003.6
20260504202555 22 274 8.0 19.3 0.00 0.03 0.00 39 1003.7
20260504202058 22 227 11.3 22.5 0.00 0.03 0.00 37 1003.8
20260504201558 22 241 11.3 22.5 0.00 0.03 0.00 37 1003.9
20260504201152 22 212 11.3 19.3 0.00 0.03 0.00 38 1004.0
20260504200554 22 217 8.0 22.5 0.00 0.03 0.00 41 1004.0
20260504200055 22 234 11.3 22.5 0.00 0.03 0.00 39 1004.2
20260504195559 22 230 8.0 19.3 0.00 0.03 0.00 43 1004.1
20260504195055 22 229 8.0 19.3 0.00 0.03 0.00 39 1004.3
20260504194604 22 271 11.3 19.3 0.00 0.03 0.00 40 1004.4
20260504194054 22 240 11.3 17.7 0.00 0.03 0.00 40 1004.3
20260504193554 22 264 9.7 25.7 0.00 0.03 0.00 43 1004.4
20260504193105 22 236 9.7 25.7 0.00 0.03 0.00 40 1004.5
20260504192554 22 252 14.5 25.7 0.00 0.03 0.00 42 1004.6
20260504192054 22 283 11.3 20.9 0.00 0.03 0.00 40 1004.6
20260504191557 22 232 11.3 19.3 0.00 0.03 0.00 40 1004.6
20260504191056 22 225 8.0 19.3 0.00 0.03 0.00 41 1004.6
20260504190557 22 234 11.3 19.3 0.00 0.03 0.00 42 1004.8
20260504190115 22 123 6.4 19.3 0.00 0.03 0.00 45 1004.9
20260504185554 21 272 12.9 20.9 0.00 0.03 0.00 44 1004.9
20260504185054 21 230 11.3 20.9 0.00 0.03 0.00 44 1004.9
20260504184606 21 213 9.7 20.9 0.00 0.03 0.00 43 1004.9
20260504184055 21 289 8.0 20.9 0.00 0.03 0.00 43 1005.0
20260504183559 21 255 12.9 22.5 0.00 0.03 0.00 43 1005.0
20260504183058 21 294 11.3 22.5 0.00 0.03 0.00 43 1005.0
20260504182557 21 269 8.0 14.5 0.00 0.03 0.00 44 1005.0
20260504182054 21 267 8.0 19.3 0.00 0.03 0.00 45 1005.1
20260504181556 21 242 9.7 19.3 0.00 0.03 0.00 47 1005.0
20260504181054 21 227 6.4 19.3 0.00 0.03 0.00 45 1005.1
20260504180553 20 286 8.0 19.3 0.00 0.03 0.00 47 1005.1
20260504180055 20 229 9.7 19.3 0.00 0.03 0.00 46 1005.3
20260504175558 20 236 6.4 17.7 0.00 0.03 0.00 47 1005.3
20260504175059 20 188 6.4 20.9 0.00 0.03 0.00 47 1005.4
20260504174601 20 223 11.3 20.9 0.00 0.03 0.00 45 1005.3
20260504174055 20 232 6.4 22.5 0.00 0.03 0.00 48 1005.3
20260504173555 20 255 12.9 22.5 0.00 0.03 0.00 43 1005.4
20260504173057 21 294 4.8 20.9 0.00 0.03 0.00 46 1005.5
20260504172554 20 137 9.7 20.9 0.00 0.03 0.00 45 1005.6
20260504172056 20 246 6.4 19.3 0.00 0.03 0.00 45 1005.5
20260504171555 20 261 9.7 20.9 0.00 0.03 0.00 45 1005.6
20260504171057 20 238 11.3 22.5 0.00 0.03 0.00 47 1005.7
20260504170555 20 214 11.3 22.5 0.00 0.03 0.00 47 1005.7
20260504151055 17 231 9.7 19.3 0.00 0.03 0.00 51 1006.8
20260504150553 17 160 8.0 22.5 0.00 0.03 0.00 50 1006.8
20260504141054 15 242 6.4 16.1 0.00 0.03 0.00 51 1006.9
20260504140554 15 121 4.8 17.7 0.00 0.03 0.00 53 1007.0
20260504140108 14 223 9.7 22.5 0.00 0.03 0.00 52 1007.0
20260504130555 12 119 8.0 17.7 0.00 0.03 0.00 55 1007.5
20260504110554 10 236 1.6 12.9 0.00 0.03 0.00 59 1007.4
20260504110118 10 106 4.8 12.9 0.00 0.03 0.00 59 1007.3
20260504100555 10 139 1.6 6.4 0.00 0.03 0.00 61 1007.3
20260504090119 10 207 3.2 9.7 0.00 0.03 0.00 60 1007.4
20260504081601 10 256 4.8 11.3 0.00 0.03 0.00 60 1007.6
20260504081054 10 213 3.2 11.3 0.00 0.03 0.00 60 1007.6
20260504080557 10 153 1.6 9.7 0.00 0.03 0.00 60 1007.7